DB0LS-15 Weather Reports


Display with metric or nautical units.
time (UTC)temp
F
wind
direction
speed
MPH
gust
MPH
rain 1hr
in
rain 24hr
in
rain mn
in
humidity
%
barometer
mb
20260507060517 44 48 5.0 9.0 0.00 0.21 0.21 99 992.8
20260507055614 45 56 4.0 8.0 0.00 0.21 0.21 99 992.6
20260507054610 44 26 6.0 8.0 0.00 0.21 0.21 99 992.5
20260507053606 44 50 5.0 9.0 0.00 0.21 0.21 99 992.4
20260507052602 44 40 4.0 8.0 0.00 0.21 0.21 99 992.4
20260507051558 45 36 5.0 7.0 0.01 0.21 0.21 99 992.3
20260507050554 45 44 4.0 7.0 0.01 0.21 0.21 99 992.3
20260507045551 45 38 4.0 8.0 0.01 0.21 0.21 99 992.2
20260507044547 45 45 5.0 9.0 0.01 0.21 0.21 98 992.2
20260507043543 45 34 5.0 9.0 0.01 0.21 0.21 98 992.0
20260507042540 46 52 4.0 7.0 0.01 0.21 0.21 98 991.9
20260507041536 46 29 3.0 7.0 0.00 0.20 0.20 98 991.9
20260507040532 46 47 3.0 6.0 0.00 0.20 0.20 98 991.8
20260507035528 46 35 3.0 7.0 0.00 0.20 0.20 98 991.6
20260507034524 46 39 1.0 4.0 0.00 0.20 0.20 98 991.5
20260507033520 46 31 2.0 6.0 0.00 0.20 0.20 98 991.4
20260507032517 46 49 3.0 6.0 0.00 0.20 0.20 98 991.3
20260507031613 46 42 1.0 4.0 0.00 0.20 0.20 98 991.3
20260507030609 46 43 4.0 7.0 0.00 0.20 0.20 98 991.2
20260507025605 46 37 3.0 6.0 0.00 0.20 0.20 98 991.2
20260507024601 46 36 2.0 6.0 0.00 0.20 0.20 98 991.0
20260507023558 46 30 2.0 4.0 0.00 0.20 0.20 98 991.0
20260507022554 46 34 3.0 4.0 0.00 0.20 0.20 98 990.9
20260507021550 46 32 3.0 7.0 0.00 0.20 0.20 98 990.8
20260507020546 47 57 3.0 7.0 0.01 0.20 0.20 98 990.7
20260507015542 47 38 4.0 8.0 0.01 0.20 0.20 98 990.5
20260507014539 47 48 4.0 7.0 0.02 0.20 0.20 98 990.5
20260507013535 47 73 3.0 6.0 0.05 0.20 0.20 98 990.4
20260507012531 47 36 5.0 9.0 0.07 0.20 0.20 98 990.1
20260507011527 47 47 7.0 14.0 0.08 0.20 0.20 98 990.0
20260507010523 47 52 8.0 11.0 0.08 0.19 0.19 98 989.9
20260507005519 47 36 7.0 11.0 0.09 0.19 0.19 97 990.1
20260507004516 48 57 5.0 11.0 0.11 0.18 0.18 97 990.3
20260507003612 48 41 3.0 6.0 0.09 0.15 0.15 97 990.2
20260507002608 48 47 5.0 8.0 0.08 0.13 0.13 97 990.0
20260507001604 48 56 6.0 11.0 0.08 0.12 0.12 97 989.9
20260507000601 48 90 4.0 6.0 0.09 0.13 0.11 97 990.2
20260506235557 48 59 4.0 9.0 0.09 0.12 0.09 96 990.2
20260506234553 49 62 3.0 6.0 0.07 0.11 0.07 96 990.3
20260506233549 49 63 3.0 4.0 0.06 0.11 0.06 95 990.3
20260506232545 49 52 4.0 7.0 0.05 0.09 0.05 95 990.3
20260506231541 49 54 3.0 6.0 0.04 0.09 0.04 94 990.2
20260506230537 49 37 2.0 4.0 0.01 0.08 0.01 93 990.3
20260506225533 50 44 2.0 6.0 0.00 0.12 0.00 92 990.3
20260506224600 50 37 3.0 7.0 0.00 0.40 0.00 92 990.2
20260506223556 50 39 3.0 4.0 0.00 0.46 0.00 92 990.1
20260506222552 50 29 2.0 4.0 0.00 0.53 0.00 92 990.0
20260506221548 50 41 1.0 4.0 0.00 0.59 0.00 92 990.0
20260506220544 50 68 4.0 7.0 0.00 0.61 0.00 93 989.6
20260506215541 50 45 4.0 8.0 0.00 0.71 0.71 92 989.7
20260506214536 51 47 2.0 6.0 0.00 0.78 0.71 92 989.7
20260506213533 51 44 6.0 11.0 0.00 0.78 0.71 92 989.6
20260506212529 51 63 5.0 9.0 0.00 0.78 0.71 92 989.4
20260506211525 51 38 5.0 11.0 0.00 0.78 0.71 92 989.3
20260506210521 51 50 4.0 7.0 0.00 0.78 0.71 92 989.1
20260506205517 52 53 4.0 7.0 0.00 0.78 0.71 92 989.2
20260506204614 52 43 3.0 7.0 0.00 0.78 0.71 92 989.1
20260506203610 52 40 3.0 6.0 0.00 0.78 0.71 93 989.2
20260506202607 52 42 5.0 7.0 0.00 0.78 0.71 93 989.0
20260506201603 52 51 6.0 13.0 0.00 0.78 0.71 93 988.8
20260506200559 52 41 5.0 9.0 0.00 0.78 0.71 93 988.7
20260506195555 52 23 4.0 9.0 0.00 0.78 0.71 93 988.6
20260506194552 52 21 5.0 8.0 0.00 0.78 0.71 93 988.6
20260506193548 52 41 5.0 9.0 0.00 0.78 0.71 93 988.5
20260506192544 53 37 3.0 6.0 0.00 0.78 0.71 92 988.3
20260506191540 53 45 3.0 6.0 0.00 0.78 0.71 92 988.3
20260506190537 53 34 3.0 6.0 0.00 0.78 0.71 91 988.3
20260506185533 54 48 6.0 11.0 0.00 0.78 0.71 90 988.2
20260506184529 54 83 5.0 11.0 0.00 0.78 0.71 90 988.2
20260506183525 54 47 4.0 8.0 0.00 0.78 0.71 89 988.1
20260506182521 54 35 6.0 11.0 0.00 0.78 0.71 89 988.2
20260506181517 55 33 6.0 9.0 0.00 0.78 0.71 89 988.0
20260506180614 55 43 5.0 11.0 0.00 0.78 0.71 89 987.8
20260506175610 55 44 5.0 9.0 0.00 0.78 0.71 89 987.8
20260506174606 56 28 6.0 9.0 0.00 0.78 0.71 88 987.8
20260506173602 56 36 5.0 8.0 0.00 0.78 0.71 88 987.6
20260506172559 56 29 3.0 8.0 0.00 0.78 0.71 87 987.6
20260506171555 57 40 5.0 11.0 0.00 0.78 0.71 87 987.3
20260506170551 57 33 5.0 8.0 0.00 0.78 0.71 86 987.4
20260506165547 58 42 6.0 11.0 0.00 0.78 0.71 86 987.2
20260506164543 58 19 6.0 11.0 0.00 0.78 0.71 85 987.2
20260506163540 59 46 4.0 9.0 0.00 0.78 0.71 85 987.3
20260506162536 59 32 7.0 14.0 0.00 0.78 0.71 85 987.4
20260506161532 59 56 6.0 11.0 0.00 0.78 0.71 85 987.4
20260506160528 59 33 4.0 8.0 0.00 0.78 0.71 85 987.4
20260506155525 60 41 6.0 13.0 0.00 0.78 0.71 83 987.5
20260506154521 61 44 5.0 11.0 0.00 0.78 0.71 83 987.4
20260506153517 61 34 6.0 11.0 0.00 0.78 0.71 82 987.5
20260506152614 62 48 6.0 9.0 0.00 0.78 0.71 81 987.5
20260506151610 62 26 5.0 11.0 0.00 0.78 0.71 82 987.5
20260506150606 60 41 7.0 13.0 0.00 0.78 0.71 82 987.5
20260506145602 61 23 5.0 8.0 0.00 0.78 0.71 82 987.5
20260506144558 62 17 4.0 8.0 0.00 0.78 0.71 80 987.5
20260506143555 64 333 3.0 7.0 0.00 0.78 0.71 76 987.4
20260506142551 63 50 2.0 4.0 0.00 0.78 0.71 76 987.4
20260506141547 64 302 3.0 7.0 0.00 0.78 0.71 75 987.4
20260506140543 64 348 2.0 4.0 0.00 0.78 0.71 75 987.5
20260506135539 64 303 2.0 6.0 0.00 0.78 0.71 74 987.6
20260506134536 64 303 2.0 7.0 0.00 0.78 0.71 75 987.6
20260506133532 64 16 3.0 7.0 0.00 0.78 0.71 74 987.7
20260506132528 63 276 3.0 7.0 0.00 0.78 0.71 77 987.8
20260506131524 62 292 5.0 9.0 0.00 0.78 0.71 78 987.8
20260506130520 62 305 5.0 8.0 0.00 0.78 0.71 78 987.8
20260506125517 63 297 3.0 6.0 0.00 0.78 0.71 79 987.7
20260506124613 62 302 3.0 7.0 0.00 0.78 0.71 80 987.8
20260506123609 62 284 6.0 11.0 0.00 0.78 0.71 79 987.8
20260506122606 63 307 5.0 11.0 0.00 0.78 0.71 78 987.8
20260506121602 62 262 8.0 13.0 0.00 0.78 0.71 77 987.7
20260506120558 62 342 3.0 8.0 0.00 0.78 0.71 81 987.8
20260506115554 62 305 4.0 8.0 0.00 0.78 0.71 80 987.7
20260506114551 61 302 6.0 11.0 0.00 0.78 0.71 82 987.7
20260506113547 61 297 5.0 9.0 0.00 0.78 0.71 83 987.8
20260506112543 61 319 5.0 9.0 0.00 0.78 0.71 83 987.9
20260506111539 61 291 6.0 11.0 0.00 0.78 0.71 82 987.8
20260506110536 61 278 4.0 7.0 0.00 0.78 0.71 82 987.7
20260506105532 60 289 6.0 11.0 0.00 0.78 0.71 83 987.8
20260506104528 60 288 8.0 16.0 0.00 0.78 0.71 84 987.7
20260506103524 60 281 7.0 14.0 0.00 0.78 0.71 85 987.7
20260506102521 60 267 8.0 14.0 0.00 0.78 0.71 85 987.6
20260506101517 61 294 7.0 13.0 0.00 0.78 0.71 82 987.5
20260506100613 60 282 6.0 11.0 0.00 0.78 0.71 84 987.5
20260506095609 59 293 9.0 18.0 0.00 0.78 0.71 85 987.4
20260506094606 60 271 5.0 13.0 0.00 0.78 0.71 85 987.3
20260506093602 60 285 8.0 15.0 0.00 0.78 0.71 85 987.2
20260506092558 60 292 9.0 16.0 0.00 0.78 0.71 86 987.1
20260506091555 59 271 8.0 15.0 0.00 0.78 0.71 87 987.0
20260506090551 58 260 9.0 16.0 0.00 0.78 0.71 88 986.8
20260506085547 59 283 6.0 11.0 0.00 0.79 0.71 87 986.8
20260506084543 59 267 9.0 18.0 0.00 0.79 0.71 86 986.5
20260506083540 60 253 6.0 14.0 0.00 0.79 0.71 86 986.2
20260506082536 58 284 7.0 16.0 0.00 0.79 0.71 88 986.2
20260506081532 58 273 7.0 15.0 0.00 0.79 0.71 89 986.2
20260506080528 58 264 7.0 15.0 0.00 0.79 0.71 89 986.2
20260506073517 57 245 7.0 16.0 0.00 0.80 0.71 90 986.2
20260506072613 57 240 7.0 14.0 0.00 0.80 0.71 91 986.2
20260506071609 57 240 7.0 15.0 0.00 0.80 0.71 92 986.1
20260506070605 56 231 7.0 17.0 0.00 0.80 0.71 93 986.0
20260506061546 55 225 6.0 11.0 0.00 0.83 0.71 98 985.8